Home > Weather > Jakobstad > Past weeks

Flag for Finland Past Weather in Jakobstad, Finland — Yesterday and Last 2 Weeks

Now
59 °F

Sunny.


Feels Like: 59 °F
Forecast: 60 / 72 °F
Wind: 1 mph from Southeast

Location: Kruunupyy

Current Time: Jul 28, 2016 at 11:22:00 PM

Latest Report: Jul 28, 2016 at 10:50 PM


Visibility: 10 mi

Pressure: 29.83 "Hg

Humidity: 88%

Dew Point: 55 °F

Location of JakobstadLocation

Past Weather in Jakobstad — Graph

°F

Jakobstad Temperature Yesterday

Maximum temperature yesterday: 75 °F (at 12:50 PM)
Minimum temperature yesterday: 59 °F (at 11:50 PM)
Average temperature yesterday: 68 °F

High & Low Weather Summary for the Past Weeks

 TemperatureHumidityPressure
High82 °F (Jul 26, 2:20 PM)100% (Jul 14, 4:50 AM)30.12 "Hg (Jul 14, 4:50 AM)
Low39 °F (Jul 20, 4:20 AM)38% (Jul 20, 3:20 PM)29.59 "Hg (Jul 13, 10:20 PM)
Average64 °F76%29.92 "Hg
* Reported Jul 13 10:20 PM — Jul 28 10:20 PM, Jakobstad, Weather by CustomWeather, © 2016

Note: Actual official high and low records may vary slightly from our data, if they occured in-between our weather recording intervals... More about our weather records

Advertising

Jakobstad Weather History for the Previous 24 Hours

Scroll right to see more
 ConditionsComfort  
Time TempWeatherWind HumidityBarometerVisibility
10:20 PM
Thu, Jul 28
63 °FSunny.1 mph77%29.83 "Hg10 mi
9:50 PM64 °FSunny.1 mph73%29.83 "Hg10 mi
9:20 PM66 °FSunny.3 mph68%29.83 "Hg10 mi
8:50 PM70 °FScattered clouds.5 mph60%29.83 "HgN/A
8:20 PM70 °FScattered clouds.7 mph57%29.83 "HgN/A
7:50 PM72 °FScattered clouds.6 mph53%29.83 "HgN/A
7:20 PM72 °FScattered clouds.7 mph53%29.83 "HgN/A
6:50 PM72 °FScattered clouds.7 mph57%29.83 "HgN/A
6:20 PM72 °FScattered clouds.7 mph57%29.86 "HgN/A
5:50 PM70 °FScattered clouds.2 mph64%29.86 "HgN/A
5:20 PM72 °FPartly sunny.2 mph61%29.86 "HgN/A
4:50 PM72 °FPartly sunny.3 mph61%29.86 "HgN/A
4:20 PM68 °FPartly sunny.2 mph69%29.86 "HgN/A
3:50 PM68 °FPartly sunny.2 mph69%29.86 "HgN/A
3:20 PM68 °FPartly sunny.7 mph64%29.86 "HgN/A
2:50 PM72 °FMild.6 mph57%29.86 "HgN/A
2:20 PM73 °FMild.10 mph53%29.86 "HgN/A
1:50 PM72 °FPartly sunny.8 mph57%29.86 "HgN/A
1:20 PM73 °FPartly sunny.9 mph50%29.86 "HgN/A
12:50 PM73 °FPartly sunny.7 mph50%29.86 "HgN/A
12:20 PM73 °FScattered clouds.9 mph50%29.86 "HgN/A
11:50 AM72 °FScattered clouds.10 mph53%29.86 "HgN/A
11:20 AM72 °FScattered clouds.8 mph57%29.86 "HgN/A
10:50 AM70 °FScattered clouds.8 mph60%29.86 "HgN/A
10:20 AM70 °FMild.7 mph69%29.86 "HgN/A
9:50 AM66 °FMild.6 mph83%29.86 "HgN/A
9:20 AM64 °FMild.6 mph83%29.86 "HgN/A
8:50 AM63 °FMild.6 mph94%29.86 "HgN/A
8:20 AM61 °FCool.6 mph94%29.86 "HgN/A
7:50 AM61 °FCool.7 mph94%29.86 "HgN/A
7:20 AM59 °FCool.7 mph100%29.86 "HgN/A
6:50 AM59 °FCool.6 mph94%29.86 "HgN/A
6:20 AM57 °FCool.5 mph100%29.86 "HgN/A
5:50 AM57 °FPassing clouds.5 mph94%29.86 "HgN/A
5:20 AM55 °FClear.5 mph100%29.86 "Hg10 mi
4:50 AM55 °FCool.3 mph100%29.86 "HgN/A
4:20 AM55 °FCool.5 mph100%29.86 "HgN/A
3:50 AM55 °FCool.6 mph100%29.86 "HgN/A
3:20 AM55 °FCool.6 mph100%29.86 "HgN/A
2:50 AM57 °FCool.6 mph94%29.86 "HgN/A
2:20 AM55 °FCool.5 mph94%29.89 "HgN/A
1:50 AM57 °FCool.6 mph94%29.89 "HgN/A
1:20 AM57 °FCool.6 mph94%29.89 "HgN/A
12:50 AM57 °FCool.6 mph94%29.89 "HgN/A
12:20 AM57 °FClear.5 mph88%29.89 "Hg10 mi
11:50 PM
Wed, Jul 27
59 °FClear.5 mph88%29.89 "Hg10 mi
11:20 PM61 °FSunny.2 mph83%29.89 "Hg10 mi
Weather by CustomWeather, © 2016

See weather overviewHow to use our weather pages